sat.trackr.live / text

‹ back to catalog

STARLINK-35935

NORAD 66527 · 2025-265M

PAYLOAD ACTIVE UNKNOWN

§ Identity

Operator
Country
US
Launch date
2025-11-19
Launch site
AFETR
Launch vehicle
Mass (kg)
RCS (m²)

Purposes: comms

External: N2YO · Heavens-Above · Gunter

§ Orbital elements

Epoch: 2026-05-25T04:57:29.248992Z

Period
94.27 min
Inclination
43.0000°
Eccentricity
0.0001325
Mean motion
15.27590458 rev/d
Perigee alt
482.1 km
Apogee alt
483.9 km
Semi-major
6,861.2 km
B*
7.8945e-4
RAAN
205.9862°
Arg perigee
271.8004°
Mean anomaly
88.2696°
Rev number
2,881

§ Raw data

STARLINK-359351 66527U 25265M   26145.20658853  .00021532  00000+0  78945-3 0  99992 66527  43.0000 205.9862 0001325 271.8004  88.2696 15.27590458 28814

JSON: /api/v1/satellites/66527 · /tle

For live sub-satellite position, see the globe view (requires WebGL).

§ Visibility from observer

Set your observer location to see the next 7 days of passes ≥ 10°. The values pass through the URL so the page stays shareable.

No JS? Fill the form by hand. The geolocation button needs JavaScript.